WetterOnline ( https://www.wetteronline.ch )

Wetter aktuell Görlitz

Aktuelles Wetter: Görlitz (240m)

6-stündlich | Neueste Meldungen
Ortszeit Temperatur Wetter
So, 25.08. 8:00 18.0° C wolkig
So, 25.08. 2:00 19.7° C wolkig
Sa, 24.08. 20:00 24.2° C wolkig
Sa, 24.08. 14:00 25.1° C leicht bewölkt
Sa, 24.08. 8:00 15.4° C leicht bewölkt
Sa, 24.08. 2:00 14.4° C wolkenlos
Fr, 23.08. 20:00 22.2° C wolkenlos
Fr, 23.08. 14:00 24.6° C leicht bewölkt
Ortszeit Temperatur Wetter
So, 25.08. 9:00 20.0° C leicht bewölkt
So, 25.08. 8:30 19.5° C fast wolkenlos
So, 25.08. 8:20 19.5° C fast wolkenlos
So, 25.08. 8:10 18.8° C fast wolkenlos
So, 25.08. 8:00 18.0° C wolkig
So, 25.08. 7:50 18.0° C wolkig
So, 25.08. 7:30 17.2° C leicht bewölkt
So, 25.08. 7:00 16.1° C leicht bewölkt
So, 25.08. 6:30 16.4° C wolkenlos
So, 25.08. 6:00 16.1° C wolkenlos
So, 25.08. 5:30 16.6° C fast wolkenlos
Ortszeit Relative Feuchte Sichtweite
So, 25.08. 8:00 81% 29 km
So, 25.08. 2:00 75% 30 km
Sa, 24.08. 20:00 58% 40 km
Sa, 24.08. 14:00 53% 65 km
Sa, 24.08. 8:00 87% 14 km
Sa, 24.08. 2:00 90% 12 km
Fr, 23.08. 20:00 55% 60 km
Fr, 23.08. 14:00 46% >70 km
Ortszeit Relative Feuchte Sichtweite
So, 25.08. 9:00 73% 30 km
So, 25.08. 8:30 75% 30 km
So, 25.08. 8:20 75% -
So, 25.08. 8:10 78% -
So, 25.08. 8:00 81% 29 km
So, 25.08. 7:50 81% -
So, 25.08. 7:30 86% 25 km
So, 25.08. 7:00 90% 18 km
So, 25.08. 6:30 89% 24 km
So, 25.08. 6:00 90% 21 km
So, 25.08. 5:30 89% 20 km
Ortszeit Niederschlagsmenge Niederschlagsart
So, 25.08. 8:00 0.0 l/m2 in 12 Std. -
So, 25.08. 2:00 0.0 l/m2 in 6 Std. -
Sa, 24.08. 20:00 0.0 l/m2 in 12 Std. -
Sa, 24.08. 14:00 0.0 l/m2 in 6 Std. -
Sa, 24.08. 8:00 0.0 l/m2 in 12 Std. -
Sa, 24.08. 2:00 0.0 l/m2 in 6 Std. -
Fr, 23.08. 20:00 0.0 l/m2 in 12 Std. -
Fr, 23.08. 14:00 0.0 l/m2 in 6 Std. -
Ortszeit Niederschlagsmenge Niederschlagsart
So, 25.08. 9:00 0.0 l/m2 in 1 Std. -
So, 25.08. 8:30 0.0 l/m2 in 1 Std. -
So, 25.08. 8:20 keine Meldung -
So, 25.08. 8:10 keine Meldung -
So, 25.08. 8:00 0.0 l/m2 in 1 Std. -
So, 25.08. 7:50 keine Meldung -
So, 25.08. 7:30 0.0 l/m2 in 1 Std. -
So, 25.08. 7:00 0.0 l/m2 in 1 Std. -
So, 25.08. 6:30 0.0 l/m2 in 1 Std. -
So, 25.08. 6:00 0.0 l/m2 in 1 Std. -
So, 25.08. 5:30 0.0 l/m2 in 1 Std. -
Ortszeit Stärke Spitze Richtung
km/h Bft. km/h Grad Sektor
So, 25.08. 8:00 2 1 9 30° NO
So, 25.08. 2:00 6 1 17 80° O
Sa, 24.08. 20:00 13 3 30 70° O
Sa, 24.08. 14:00 17 3 33 60° NO
Sa, 24.08. 8:00 4 1 7 110° O
Sa, 24.08. 2:00 6 1 17 90° O
Fr, 23.08. 20:00 9 2 35 60° NO
Fr, 23.08. 14:00 14 3 29 50° NO
Ortszeit Stärke Spitze Richtung
km/h Bft. km/h Grad Sektor
So, 25.08. 9:00 7 2 11 90° O
So, 25.08. 8:30 - - 11 - -
So, 25.08. 8:20 - - - - -
So, 25.08. 8:10 4 1 - 80° O
So, 25.08. 8:00 2 1 7 30° NO
So, 25.08. 7:50 2 1 - 30° NO
So, 25.08. 7:30 4 1 7 80° O
So, 25.08. 7:00 2 1 7 130° SO
So, 25.08. 6:30 6 1 7 60° NO
So, 25.08. 6:00 6 1 9 50° NO
So, 25.08. 5:30 6 1 9 70° O
Ortszeit Untergrenze Bedeckung Gattung
total tief tief mittel hoch
So, 25.08. 8:00 3600 m 5/8 5/8 - - -
So, 25.08. 2:00 1500 m 6/8 6/8 - - -
Sa, 24.08. 20:00 8700 m 8/8 0/8 - - -
Sa, 24.08. 14:00 9000 m 8/8 0/8 - - -
Sa, 24.08. 8:00 9000 m 5/8 0/8 - - -
Sa, 24.08. 2:00 - 0/8 0/8 - - -
Fr, 23.08. 20:00 - 0/8 0/8 - - -
Fr, 23.08. 14:00 1350 m 2/8 2/8 - - -
Ortszeit Bedeckungsgrad in Achtel und Wolkenuntergrenze
So, 25.08. 9:00 3(9000m)
So, 25.08. 8:30 1(10500m)
So, 25.08. 8:20 1(10500m)
So, 25.08. 8:10 1(10500m)
So, 25.08. 8:00 5(3600m) 3(10500m)
So, 25.08. 7:50 5(3600m)
So, 25.08. 7:30 3(3600m) 4(10500m)
So, 25.08. 7:00 2(3600m)
So, 25.08. 6:30 keine Wolken
So, 25.08. 6:00 keine Wolken
So, 25.08. 5:30 2(10500m)
Ortszeit Luftdruck NN (hPa) Tendenz (hPa in 3 Std.)
So, 25.08. 8:00 1021 + 0,3
So, 25.08. 2:00 1021 - 0,3
Sa, 24.08. 20:00 1021 - 0,6
Sa, 24.08. 14:00 1023 - 0,5
Sa, 24.08. 8:00 1025 0,0
Sa, 24.08. 2:00 1025 - 0,5
Fr, 23.08. 20:00 1025 - 0,4
Fr, 23.08. 14:00 1026 - 0,9
Ortszeit Luftdruck NN (hPa) Tendenz (hPa in 3 Std.)
So, 25.08. 9:00 1021 + 0,2
So, 25.08. 8:30 1021 + 0,1
So, 25.08. 8:20 1021 keine Meldung
So, 25.08. 8:10 1021 keine Meldung
So, 25.08. 8:00 1021 + 0,3
So, 25.08. 7:50 1021 keine Meldung
So, 25.08. 7:30 1021 + 0,3
So, 25.08. 7:00 1021 + 0,2
So, 25.08. 6:30 1021 + 0,3
So, 25.08. 6:00 1021 + 0,1
So, 25.08. 5:30 1021 - 0,1
Ortszeit Schneehöhe (cm)
So, 25.08. 8:00 -
So, 25.08. 2:00 -
Sa, 24.08. 20:00 -
Sa, 24.08. 14:00 -
Sa, 24.08. 8:00 -
Sa, 24.08. 2:00 -
Fr, 23.08. 20:00 -
Fr, 23.08. 14:00 -
Ortszeit Schneehöhe (cm)
So, 25.08. 9:00 -
So, 25.08. 8:30 -
So, 25.08. 8:20 -
So, 25.08. 8:10 -
So, 25.08. 8:00 -
So, 25.08. 7:50 -
So, 25.08. 7:30 -
So, 25.08. 7:00 -
So, 25.08. 6:30 -
So, 25.08. 6:00 -
So, 25.08. 5:30 -
Link zu dieser Seite / Seite empfehlen

Das Wetter in ...